Location: Erlenbrunn
(49.1717°N, 7.6142°E)
Time: 17:45:42
(UTC+00:00)

Cosmos 1606 - Pass Details

Date: 25 November 2020
Orbit: 503 x 527 km, 82.5° (Epoch: 22 January)

Event Time Altitude Azimuth Distance (km) Brightness Sun altitude
Rises 16:44:04 0° 170° (S) 2,654 6.4 -10.6°
Reaches altitude 10° 16:46:17 10° 163° (SSE) 1,770 5.4 -10.9°
Maximum altitude 16:49:56 40° 93° (E) 791 3.2 -11.5°
Drops below altitude 10° 16:53:36 10° 23° (NNE) 1,783 5.0 -12.0°
Enters shadow 16:54:18 - 20° (NNE) 2,059 5.4 -12.2°
